Fitchburg, MA

1:55 AM EDT on April 25, 2017 (GMT -0400)
Fitchburg Municipal

Weather History for KFIT - February, 2012

Change the Weather History Date:

Wednesday, February 29, 2012

  Actual Average (KORH) Record (KORH)
Temperature  
Mean Temperature 32 °F -  
Max Temperature 34 °F - 57 °F (2016)
Min Temperature 30 °F - 2 °F (1980)
Degree Days  
Heating Degree Days 33    
Moisture  
Dew Point 25 °F    
Average Humidity 81    
Maximum Humidity 93    
Minimum Humidity 46    
Precipitation  
Precipitation 0.27 in - - ()
Sea Level Pressure  
Sea Level Pressure 30.17 in    
Wind  
Wind Speed 2 mph (East)    
Max Wind Speed 8 mph    
Max Gust Speed -    
Visibility 3 miles    
Events Fog , Snow    
Averages and records for this station are not official NWS values.
T = Trace of Precipitation, MM = Missing Value Source: NWS Daily Summary

Daily Weather History Graph

Daily Weather History Graph

Search for Another Location

Airport or City:

Trip Planner

Search our weather history database for the weather conditions in past years. The results will help you decide how hot, cold, wet, or windy it might be!

Date:

Astronomy

Feb. 29, 2012 Rise Set
Actual Time 6:23 AM EST 5:36 PM EST
Civil Twilight 5:55 AM EST 6:04 PM EST
Nautical Twilight 5:22 AM EST 6:37 PM EST
Astronomical Twilight 4:50 AM EST 7:09 PM EST
Moon 10:02 AM EST (2/29) 12:30 AM EST (2/29)
Length of Visible Light 12h 09m
Length of Day
11h 12m
Waxing Crescent, 47% of the Moon is Illuminated
Feb 29
Waxing Crescent
Feb 29
First Quarter
Mar 8
Full
Mar 14
Last Quarter
Mar 22
New

Hourly Weather History & Observations

Time (EST) Temp. Windchill Dew Point Humidity Pressure Visibility Wind Dir Wind Speed Gust Speed Precip Events Conditions
12:52 AM 30.9 °F - 18.0 °F 59% 30.40 in 10.0 mi Calm Calm - N/A   Overcast
1:52 AM 30.0 °F - 19.0 °F 64% 30.39 in 10.0 mi Calm Calm - N/A   Overcast
2:52 AM 30.9 °F - 18.0 °F 59% 30.38 in 10.0 mi Calm Calm - N/A   Overcast
3:52 AM 30.9 °F - 16.0 °F 54% 30.37 in 10.0 mi Calm Calm - N/A   Overcast
4:52 AM 30.9 °F 27.5 °F 16.0 °F 54% 30.37 in 10.0 mi SSE 3.5 mph - N/A   Overcast
5:52 AM 30.9 °F - 15.1 °F 52% 30.35 in 10.0 mi Calm Calm - N/A   Overcast
6:52 AM 30.9 °F - 15.1 °F 52% 30.36 in 10.0 mi Calm Calm - N/A   Overcast
7:52 AM 32.0 °F - 14.0 °F 48% 30.35 in 10.0 mi Calm Calm - N/A   Overcast
8:52 AM 32.0 °F 28.7 °F 14.0 °F 48% 30.35 in 10.0 mi East 3.5 mph - N/A   Overcast
9:52 AM 33.1 °F 28.7 °F 14.0 °F 46% 30.33 in 10.0 mi ENE 4.6 mph - N/A   Overcast
11:52 AM 34.0 °F 29.8 °F 16.0 °F 48% 30.29 in 10.0 mi ENE 4.6 mph - N/A   Overcast
12:40 PM 33.8 °F 27.0 °F 21.2 °F 60% 30.27 in 2.5 mi South 8.1 mph - 0.00 in Snow Light Snow
12:48 PM 32.0 °F 26.4 °F 23.0 °F 69% 30.26 in 1.2 mi SSW 5.8 mph - 0.00 in Snow Light Snow
12:52 PM 30.9 °F 24.3 °F 24.1 °F 76% 30.28 in 1.2 mi South 6.9 mph - 0.00 in Snow Light Snow
1:04 PM 30.2 °F 25.4 °F 26.6 °F 86% 30.25 in 0.8 mi SSE 4.6 mph - 0.00 in Snow Light Snow
1:32 PM 30.2 °F 25.4 °F 26.6 °F 86% 30.23 in 0.8 mi SSE 4.6 mph - 0.01 in Snow Light Snow
1:48 PM 30.2 °F 26.7 °F 26.6 °F 86% 30.23 in 0.8 mi SE 3.5 mph - 0.02 in Snow Light Snow
1:52 PM 30.0 °F 26.5 °F 28.0 °F 92% 30.24 in 0.5 mi ESE 3.5 mph - 0.02 in Fog , Snow Snow
2:05 PM 30.2 °F - 26.6 °F 86% 30.22 in 0.5 mi Calm Calm - 0.01 in Fog , Snow Snow
2:32 PM 30.2 °F 25.4 °F 26.6 °F 86% 30.21 in 0.5 mi East 4.6 mph - 0.03 in Fog , Snow Snow
2:52 PM 30.0 °F - 28.0 °F 92% 30.22 in 0.8 mi Calm Calm - 0.04 in Snow Light Snow
3:10 PM 30.2 °F 24.3 °F 26.6 °F 86% 30.18 in 1.2 mi East 5.8 mph - 0.01 in Snow Light Snow
3:19 PM 30.2 °F 26.7 °F 26.6 °F 86% 30.17 in 2.0 mi ENE 3.5 mph - 0.01 in Snow Light Snow
3:27 PM 30.2 °F 25.4 °F 26.6 °F 86% 30.17 in 2.5 mi East 4.6 mph - 0.01 in Snow Light Snow
3:35 PM 30.2 °F 26.7 °F 26.6 °F 86% 30.17 in 2.5 mi East 3.5 mph - 0.01 in Snow Light Snow
3:42 PM 30.2 °F - 28.4 °F 93% 30.17 in 2.5 mi Calm Calm - 0.01 in Snow Light Snow
3:52 PM 30.9 °F 26.2 °F 27.0 °F 85% 30.18 in 2.0 mi East 4.6 mph - 0.01 in Snow Light Snow
4:04 PM 30.2 °F 26.7 °F 26.6 °F 86% 30.16 in 4.0 mi East 3.5 mph - 0.00 in Snow Light Snow
4:22 PM 30.2 °F 25.4 °F 26.6 °F 86% 30.15 in 2.5 mi East 4.6 mph - 0.00 in Snow Light Snow
4:33 PM 30.2 °F 25.4 °F 28.4 °F 93% 30.15 in 1.2 mi East 4.6 mph - 0.00 in Snow Light Snow
4:52 PM 30.9 °F 26.2 °F 28.0 °F 89% 30.14 in 1.2 mi ESE 4.6 mph - 0.00 in Snow Light Snow
4:59 PM 30.2 °F - 28.4 °F 93% 30.12 in 1.0 mi Calm Calm - 0.01 in Snow Light Snow
5:07 PM 30.2 °F - 28.4 °F 93% 30.12 in 1.5 mi Calm Calm - 0.01 in Snow Light Snow
5:20 PM 30.2 °F 26.7 °F 28.4 °F 93% 30.12 in 0.8 mi NE 3.5 mph - 0.01 in Snow Light Snow
5:40 PM 30.2 °F - 28.4 °F 93% 30.10 in 1.2 mi Calm Calm - 0.02 in Snow Light Snow
5:52 PM 30.9 °F - 28.0 °F 89% 30.11 in 1.5 mi Calm Calm - 0.03 in Snow Light Snow
6:03 PM 30.2 °F 26.7 °F 28.4 °F 93% 30.09 in 2.0 mi ENE 3.5 mph - 0.00 in Snow Light Snow
6:13 PM 30.2 °F - 28.4 °F 93% 30.08 in 2.0 mi Calm Calm - 0.01 in Snow Light Snow
6:30 PM 30.2 °F 26.7 °F 28.4 °F 93% 30.09 in 1.8 mi NE 3.5 mph - 0.01 in Snow Light Snow
6:52 PM 30.9 °F - 28.0 °F 89% 30.09 in 2.0 mi Calm Calm - 0.02 in Snow Light Snow
7:07 PM 30.2 °F - 28.4 °F 93% 30.06 in 1.5 mi Calm Calm - 0.00 in Snow Light Snow
7:52 PM 30.0 °F 26.5 °F 28.0 °F 92% 30.08 in 1.5 mi Variable 3.5 mph - 0.02 in Snow Light Snow
8:52 PM 30.9 °F 27.5 °F 28.0 °F 89% 30.04 in 1.5 mi NE 3.5 mph - 0.03 in Snow Light Snow
9:52 PM 30.9 °F - 28.0 °F 89% 30.01 in 1.2 mi Calm Calm - 0.02 in Snow Light Snow
10:05 PM 30.2 °F 26.7 °F 28.4 °F 93% 29.98 in 1.0 mi Variable 3.5 mph - 0.00 in Snow Light Snow
10:15 PM 30.2 °F 26.7 °F 28.4 °F 93% 29.98 in 0.8 mi ENE 3.5 mph - 0.01 in Snow Light Snow
10:29 PM 30.2 °F 25.4 °F 28.4 °F 93% 29.98 in 1.0 mi NNE 4.6 mph - 0.02 in Snow Light Snow
10:40 PM 30.2 °F - 28.4 °F 93% 29.98 in 1.2 mi Calm Calm - 0.03 in Snow Light Snow
10:52 PM 30.9 °F - 28.9 °F 92% 29.99 in 1.2 mi Calm Calm - 0.04 in Snow Light Snow
11:09 PM 30.2 °F 25.4 °F 28.4 °F 93% 29.96 in 1.0 mi North 4.6 mph - 0.01 in Snow Light Snow
11:50 PM 32.0 °F 28.7 °F 28.4 °F 87% 29.93 in 1.2 mi NE 3.5 mph - 0.04 in Snow Light Snow
11:52 PM 32.0 °F - 28.9 °F 88% 29.95 in 1.5 mi Calm Calm - 0.04 in Snow Light Snow